Location: Fenile
(46.0500°N, 9.5500°E)
Time: 06:33:53
(UTC+00:00)

HJ-1C - Pass Details

Date: 03 March 2021
Orbit: 428 x 441 km, 97.1° (Epoch: 10 April)

Event Time Altitude Azimuth Distance (km) Brightness Sun altitude
Rises 18:31:16 0° 176° (S) 2,415 7.0 -14.7°
Reaches altitude 10° 18:33:18 10° 182° (S) 1,549 6.1 -15.0°
Maximum altitude 18:36:34 53° 260° (W) 545 4.1 -15.6°
Drops below altitude 10° 18:39:50 10° 339° (NNW) 1,556 6.5 -16.2°
Sets 18:41:53 0° 344° (NNW) 2,427 7.4 -16.5°
